Time,TemperatureF,DewpointF,PressureIn,WindDirection,WindDirectionDegrees,WindSpeedMPH,WindSpeedGustMPH,Humidity,HourlyPrecipIn,Conditions,Clouds,dailyrainin,SoftwareType,DateUTC
2013-08-16 00:00:00,49.0,44.7,29.95,North,0,0.7,1.1,85,0.00,,,0.00,WUHU216HW,2013-08-16 04:00:00,
2013-08-16 00:01:00,49.0,44.7,29.95,North,0,0.4,1.1,85,0.00,,,0.00,WUHU216HW,2013-08-16 04:01:00,
2013-08-16 00:06:00,48.6,44.3,29.96,North,0,0.0,1.1,85,0.00,,,0.00,WUHU216HW,2013-08-16 04:06:00,
2013-08-16 00:11:00,48.6,44.3,29.96,North,0,0.0,0.4,85,0.00,,,0.00,WUHU216HW,2013-08-16 04:11:00,
2013-08-16 00:16:00,48.2,43.9,29.96,North,0,0.0,0.0,85,0.00,,,0.00,WUHU216HW,2013-08-16 04:16:00,
2013-08-16 00:21:00,48.2,43.9,29.96,North,0,0.0,0.0,85,0.00,,,0.00,WUHU216HW,2013-08-16 04:21:00,
2013-08-16 00:26:00,48.1,43.7,29.96,North,0,0.0,0.0,85,0.00,,,0.00,WUHU216HW,2013-08-16 04:26:00,
2013-08-16 00:31:00,47.9,43.6,29.96,NW,315,0.9,0.9,85,0.00,,,0.00,WUHU216HW,2013-08-16 04:31:00,
2013-08-16 00:36:00,47.9,43.9,29.95,NW,315,0.9,1.1,86,0.00,,,0.00,WUHU216HW,2013-08-16 04:36:00,
2013-08-16 00:41:00,47.7,43.8,29.95,NNW,338,0.0,1.1,86,0.00,,,0.00,WUHU216HW,2013-08-16 04:41:00,
2013-08-16 00:46:00,47.5,43.6,29.95,NNW,338,0.0,0.9,86,0.00,,,0.00,WUHU216HW,2013-08-16 04:46:00,
2013-08-16 00:51:00,47.5,43.6,29.95,NW,315,0.4,0.7,86,0.00,,,0.00,WUHU216HW,2013-08-16 04:51:00,
2013-08-16 00:56:00,47.5,43.6,29.95,NNW,338,0.0,0.7,86,0.00,,,0.00,WUHU216HW,2013-08-16 04:56:00,
2013-08-16 01:01:00,47.2,43.6,29.95,NNE,23,0.7,0.9,87,0.00,,,0.00,WUHU216HW,2013-08-16 05:01:00,
2013-08-16 01:06:00,47.0,43.0,29.95,North,0,0.2,1.1,86,0.00,,,0.00,WUHU216HW,2013-08-16 05:06:00,
2013-08-16 01:11:00,47.0,43.0,29.95,North,0,0.4,1.1,86,0.00,,,0.00,WUHU216HW,2013-08-16 05:11:00,
2013-08-16 01:16:00,46.8,43.2,29.95,NE,45,0.4,0.9,87,0.00,,,0.00,WUHU216HW,2013-08-16 05:16:00,
2013-08-16 01:21:00,46.4,42.9,29.95,ESE,113,0.4,0.9,87,0.00,,,0.00,WUHU216HW,2013-08-16 05:21:00,
2013-08-16 01:26:00,46.4,42.9,29.94,NNW,338,0.0,0.9,87,0.00,,,0.00,WUHU216HW,2013-08-16 05:26:00,
2013-08-16 01:31:00,46.4,42.9,29.94,WNW,293,1.1,1.1,87,0.00,,,0.00,WUHU216HW,2013-08-16 05:31:00,
2013-08-16 01:36:00,46.6,43.0,29.95,NE,45,1.1,2.0,87,0.00,,,0.00,WUHU216HW,2013-08-16 05:36:00,
2013-08-16 01:41:00,46.4,42.9,29.94,North,0,0.4,2.0,87,0.00,,,0.00,WUHU216HW,2013-08-16 05:41:00,
2013-08-16 01:46:00,46.3,42.9,29.94,NNW,338,1.3,1.6,88,0.00,,,0.00,WUHU216HW,2013-08-16 05:46:00,
2013-08-16 01:51:00,46.6,43.3,29.94,NW,315,1.1,1.3,88,0.00,,,0.00,WUHU216HW,2013-08-16 05:51:00,
2013-08-16 01:56:00,46.6,43.3,29.94,ENE,68,1.6,1.6,88,0.00,,,0.00,WUHU216HW,2013-08-16 05:56:00,
2013-08-16 02:01:00,46.3,42.9,29.94,North,0,1.1,1.8,88,0.00,,,0.00,WUHU216HW,2013-08-16 06:01:00,
2013-08-16 02:06:00,46.1,42.8,29.94,NE,45,0.0,1.8,88,0.00,,,0.00,WUHU216HW,2013-08-16 06:06:00,
2013-08-16 02:11:00,46.3,42.9,29.94,NNE,23,1.1,1.1,88,0.00,,,0.00,WUHU216HW,2013-08-16 06:11:00,
2013-08-16 02:16:00,46.4,43.1,29.95,North,0,1.1,2.0,88,0.00,,,0.00,WUHU216HW,2013-08-16 06:16:00,
2013-08-16 02:21:00,46.8,43.5,29.94,SSW,203,0.9,2.0,88,0.00,,,0.00,WUHU216HW,2013-08-16 06:21:00,
2013-08-16 02:26:00,47.0,43.7,29.94,SSW,203,0.0,1.1,88,0.00,,,0.00,WUHU216HW,2013-08-16 06:26:00,
2013-08-16 02:31:00,47.3,44.0,29.95,NNW,338,0.9,1.3,88,0.00,,,0.00,WUHU216HW,2013-08-16 06:31:00,
2013-08-16 02:36:00,47.3,44.0,29.95,NNW,338,0.7,1.3,88,0.00,,,0.00,WUHU216HW,2013-08-16 06:36:00,
2013-08-16 02:41:00,47.2,43.8,29.94,NNW,338,0.0,0.9,88,0.00,,,0.00,WUHU216HW,2013-08-16 06:41:00,
2013-08-16 02:46:00,47.2,43.8,29.94,NW,315,0.0,1.1,88,0.00,,,0.00,WUHU216HW,2013-08-16 06:46:00,
2013-08-16 02:51:00,46.8,43.5,29.94,NNW,338,0.0,1.1,88,0.00,,,0.00,WUHU216HW,2013-08-16 06:51:00,
2013-08-16 02:56:00,47.0,44.0,29.94,North,0,1.1,1.1,89,0.00,,,0.00,WUHU216HW,2013-08-16 06:56:00,
2013-08-16 03:01:00,46.8,43.8,29.94,NNE,23,0.7,1.3,89,0.00,,,0.00,WUHU216HW,2013-08-16 07:01:00,
2013-08-16 03:06:00,46.4,43.5,29.94,NE,45,0.9,1.3,89,0.00,,,0.00,WUHU216HW,2013-08-16 07:06:00,
2013-08-16 03:11:00,46.4,43.5,29.95,NW,315,0.0,1.1,89,0.00,,,0.00,WUHU216HW,2013-08-16 07:11:00,
2013-08-16 03:16:00,46.4,43.5,29.94,NW,315,0.4,1.1,89,0.00,,,0.00,WUHU216HW,2013-08-16 07:16:00,
2013-08-16 03:21:00,46.6,43.7,29.94,NW,315,1.3,1.3,89,0.00,,,0.00,WUHU216HW,2013-08-16 07:21:00,
2013-08-16 03:26:00,46.8,43.8,29.94,North,0,0.4,1.3,89,0.00,,,0.00,WUHU216HW,2013-08-16 07:26:00,
2013-08-16 03:31:00,46.6,43.7,29.94,North,0,0.0,1.3,89,0.00,,,0.00,WUHU216HW,2013-08-16 07:31:00,
2013-08-16 03:36:00,46.4,43.7,29.94,NE,45,2.0,2.2,90,0.00,,,0.00,WUHU216HW,2013-08-16 07:36:00,
2013-08-16 03:41:00,46.1,43.4,29.94,ENE,68,1.3,2.2,90,0.00,,,0.00,WUHU216HW,2013-08-16 07:41:00,
2013-08-16 03:46:00,46.1,43.7,29.94,NNW,338,1.1,2.0,91,0.00,,,0.00,WUHU216HW,2013-08-16 07:46:00,
2013-08-16 03:51:00,46.1,43.4,29.95,NNW,338,0.9,1.3,90,0.00,,,0.00,WUHU216HW,2013-08-16 07:51:00,
2013-08-16 03:56:00,46.1,43.4,29.95,NNW,338,0.2,1.3,90,0.00,,,0.00,WUHU216HW,2013-08-16 07:56:00,
2013-08-16 04:01:00,46.1,43.4,29.95,North,0,0.4,1.3,90,0.00,,,0.00,WUHU216HW,2013-08-16 08:01:00,
2013-08-16 04:06:00,46.1,43.4,29.95,NNW,338,0.9,0.9,90,0.00,,,0.00,WUHU216HW,2013-08-16 08:06:00,
2013-08-16 04:11:00,45.9,43.2,29.95,NNW,338,0.0,0.9,90,0.00,,,0.00,WUHU216HW,2013-08-16 08:11:00,
2013-08-16 04:16:00,45.9,43.2,29.95,North,0,0.7,0.9,90,0.00,,,0.00,WUHU216HW,2013-08-16 08:16:00,
2013-08-16 04:21:00,45.7,43.0,29.95,NNW,338,0.0,0.9,90,0.00,,,0.00,WUHU216HW,2013-08-16 08:21:00,
2013-08-16 04:26:00,45.7,43.0,29.95,NNW,338,0.0,0.9,90,0.00,,,0.00,WUHU216HW,2013-08-16 08:26:00,
2013-08-16 04:31:00,45.5,42.8,29.95,North,0,0.4,0.7,90,0.00,,,0.00,WUHU216HW,2013-08-16 08:31:00,
2013-08-16 04:36:00,45.5,42.8,29.95,North,0,0.0,0.7,90,0.00,,,0.00,WUHU216HW,2013-08-16 08:36:00,
2013-08-16 04:41:00,45.5,42.8,29.95,North,0,0.0,0.4,90,0.00,,,0.00,WUHU216HW,2013-08-16 08:41:00,
2013-08-16 04:46:00,45.5,42.8,29.95,ENE,68,0.4,0.9,90,0.00,,,0.00,WUHU216HW,2013-08-16 08:46:00,
2013-08-16 04:51:00,45.7,43.0,29.96,North,0,0.0,0.9,90,0.00,,,0.00,WUHU216HW,2013-08-16 08:51:00,
2013-08-16 04:56:00,45.7,43.3,29.96,East,90,1.6,1.6,91,0.00,,,0.00,WUHU216HW,2013-08-16 08:56:00,
2013-08-16 05:01:00,45.9,43.5,29.96,ENE,68,0.7,1.6,91,0.00,,,0.00,WUHU216HW,2013-08-16 09:01:00,
2013-08-16 05:06:00,46.1,43.7,29.96,NNE,23,0.0,1.3,91,0.00,,,0.00,WUHU216HW,2013-08-16 09:06:00,
2013-08-16 05:11:00,46.1,43.7,29.96,NNW,338,0.4,1.1,91,0.00,,,0.00,WUHU216HW,2013-08-16 09:11:00,
2013-08-16 05:16:00,45.9,43.5,29.96,NNW,338,0.2,0.9,91,0.00,,,0.00,WUHU216HW,2013-08-16 09:16:00,
2013-08-16 05:21:00,45.9,43.5,29.96,NNW,338,0.9,0.9,91,0.00,,,0.00,WUHU216HW,2013-08-16 09:21:00,
2013-08-16 05:26:00,45.7,43.3,29.96,WNW,293,0.0,1.1,91,0.00,,,0.00,WUHU216HW,2013-08-16 09:26:00,
2013-08-16 05:31:00,45.7,43.3,29.96,NW,315,0.0,1.1,91,0.00,,,0.00,WUHU216HW,2013-08-16 09:31:00,
2013-08-16 05:36:00,45.7,43.3,29.96,North,0,0.4,0.7,91,0.00,,,0.00,WUHU216HW,2013-08-16 09:36:00,
2013-08-16 05:41:00,45.7,43.3,29.97,North,0,0.0,0.7,91,0.00,,,0.00,WUHU216HW,2013-08-16 09:41:00,
2013-08-16 05:46:00,45.7,43.3,29.97,North,0,0.0,0.4,91,0.00,,,0.00,WUHU216HW,2013-08-16 09:46:00,
2013-08-16 05:51:00,45.9,43.5,29.97,NNW,338,0.2,0.2,91,0.00,,,0.00,WUHU216HW,2013-08-16 09:51:00,
2013-08-16 05:56:00,45.9,43.5,29.97,NNW,338,0.4,1.1,91,0.00,,,0.00,WUHU216HW,2013-08-16 09:56:00,
2013-08-16 06:01:00,46.1,43.7,29.97,NW,315,0.7,1.1,91,0.00,,,0.00,WUHU216HW,2013-08-16 10:01:00,
2013-08-16 06:06:00,46.1,43.7,29.97,NW,315,0.4,0.9,91,0.00,,,0.00,WUHU216HW,2013-08-16 10:06:00,
2013-08-16 06:11:00,46.1,43.7,29.98,West,270,0.4,0.9,91,0.00,,,0.00,WUHU216HW,2013-08-16 10:11:00,
2013-08-16 06:16:00,46.3,43.8,29.98,West,270,0.4,0.7,91,0.00,,,0.00,WUHU216HW,2013-08-16 10:16:00,
2013-08-16 06:21:00,46.4,44.0,29.98,WNW,293,0.0,0.7,91,0.00,,,0.00,WUHU216HW,2013-08-16 10:21:00,
2013-08-16 06:26:00,46.4,44.0,29.98,NW,315,0.4,0.4,91,0.00,,,0.00,WUHU216HW,2013-08-16 10:26:00,
2013-08-16 06:31:00,46.6,44.2,29.98,NW,315,0.0,0.4,91,0.00,,,0.00,WUHU216HW,2013-08-16 10:31:00,
2013-08-16 06:36:00,46.8,44.4,29.98,NNW,338,0.0,0.4,91,0.00,,,0.00,WUHU216HW,2013-08-16 10:36:00,
2013-08-16 06:41:00,46.8,44.4,29.98,NNE,23,0.2,0.7,91,0.00,,,0.00,WUHU216HW,2013-08-16 10:41:00,
2013-08-16 06:46:00,46.6,44.2,29.98,NNE,23,0.0,0.7,91,0.00,,,0.00,WUHU216HW,2013-08-16 10:46:00,
2013-08-16 06:51:00,46.8,44.4,29.98,NNE,23,0.0,0.4,91,0.00,,,0.00,WUHU216HW,2013-08-16 10:51:00,
2013-08-16 06:56:00,47.2,44.7,29.98,North,0,0.0,0.0,91,0.00,,,0.00,WUHU216HW,2013-08-16 10:56:00,
2013-08-16 07:01:00,47.5,45.1,29.98,WNW,293,0.4,1.1,91,0.00,,,0.00,WUHU216HW,2013-08-16 11:01:00,
2013-08-16 07:06:00,47.9,45.5,29.98,NNW,338,0.2,1.1,91,0.00,,,0.00,WUHU216HW,2013-08-16 11:06:00,
2013-08-16 07:11:00,48.1,45.6,29.98,West,270,1.8,2.5,91,0.00,,,0.00,WUHU216HW,2013-08-16 11:11:00,
2013-08-16 07:16:00,48.4,46.0,29.98,WSW,248,0.4,2.5,91,0.00,,,0.00,WUHU216HW,2013-08-16 11:16:00,
2013-08-16 07:21:00,48.4,46.0,29.98,West,270,1.1,1.8,91,0.00,,,0.00,WUHU216HW,2013-08-16 11:21:00,
2013-08-16 07:26:00,48.6,46.2,29.98,West,270,1.6,1.8,91,0.00,,,0.00,WUHU216HW,2013-08-16 11:26:00,
2013-08-16 07:31:00,48.6,45.9,29.98,West,270,1.8,1.8,90,0.00,,,0.00,WUHU216HW,2013-08-16 11:31:00,
2013-08-16 07:36:00,48.6,45.9,29.98,WNW,293,0.4,1.8,90,0.00,,,0.00,WUHU216HW,2013-08-16 11:36:00,
2013-08-16 07:41:00,48.6,45.9,29.99,West,270,1.1,1.8,90,0.00,,,0.00,WUHU216HW,2013-08-16 11:41:00,
2013-08-16 07:46:00,49.0,46.2,29.99,WNW,293,0.4,2.7,90,0.00,,,0.00,WUHU216HW,2013-08-16 11:46:00,
2013-08-16 07:51:00,49.1,46.4,29.99,West,270,0.4,2.7,90,0.00,,,0.00,WUHU216HW,2013-08-16 11:51:00,
2013-08-16 07:56:00,49.5,46.7,29.99,West,270,0.4,1.3,90,0.00,,,0.00,WUHU216HW,2013-08-16 11:56:00,
2013-08-16 08:01:00,50.4,47.5,29.98,NW,315,1.1,1.1,90,0.00,,,0.00,WUHU216HW,2013-08-16 12:01:00,
2013-08-16 08:06:00,51.5,48.6,29.99,NW,315,1.3,1.8,90,0.00,,,0.00,WUHU216HW,2013-08-16 12:06:00,
2013-08-16 08:11:00,52.2,49.3,29.99,NNW,338,0.4,1.8,90,0.00,,,0.00,WUHU216HW,2013-08-16 12:11:00,
2013-08-16 08:16:00,52.9,50.0,29.99,NNE,23,1.3,1.8,90,0.00,,,0.00,WUHU216HW,2013-08-16 12:16:00,
2013-08-16 08:21:00,53.3,50.1,29.99,North,0,0.9,1.8,89,0.00,,,0.00,WUHU216HW,2013-08-16 12:21:00,
2013-08-16 08:26:00,53.3,50.1,29.99,NNW,338,0.7,2.0,89,0.00,,,0.00,WUHU216HW,2013-08-16 12:26:00,
2013-08-16 08:31:00,53.5,50.3,29.99,NNE,23,1.1,2.0,89,0.00,,,0.00,WUHU216HW,2013-08-16 12:31:00,
2013-08-16 08:36:00,54.0,50.5,29.98,NE,45,1.1,1.8,88,0.00,,,0.00,WUHU216HW,2013-08-16 12:36:00,
2013-08-16 08:41:00,54.9,51.4,29.98,NNE,23,0.2,1.3,88,0.00,,,0.00,WUHU216HW,2013-08-16 12:41:00,
2013-08-16 08:46:00,55.4,51.9,29.98,NNE,23,0.0,1.6,88,0.00,,,0.00,WUHU216HW,2013-08-16 12:46:00,
2013-08-16 08:51:00,55.8,51.9,29.98,SE,135,0.0,1.6,87,0.00,,,0.00,WUHU216HW,2013-08-16 12:51:00,
2013-08-16 08:56:00,56.2,52.0,29.99,SSE,158,1.1,2.5,86,0.00,,,0.00,WUHU216HW,2013-08-16 12:56:00,
2013-08-16 09:01:00,56.5,52.4,29.99,South,180,2.0,4.5,86,0.00,,,0.00,WUHU216HW,2013-08-16 13:01:00,
2013-08-16 09:06:00,57.6,53.7,29.99,South,180,2.0,4.5,87,0.00,,,0.00,WUHU216HW,2013-08-16 13:06:00,
2013-08-16 09:11:00,58.7,54.6,29.98,SE,135,0.4,3.1,86,0.00,,,0.00,WUHU216HW,2013-08-16 13:11:00,
2013-08-16 09:16:00,60.1,55.3,29.99,SSW,203,5.6,5.6,84,0.00,,,0.00,WUHU216HW,2013-08-16 13:16:00,
2013-08-16 09:21:00,60.8,55.4,29.99,SW,225,4.7,6.3,82,0.00,,,0.00,WUHU216HW,2013-08-16 13:21:00,
2013-08-16 09:26:00,61.4,55.2,29.99,South,180,5.4,6.3,80,0.00,,,0.00,WUHU216HW,2013-08-16 13:26:00,
2013-08-16 09:31:00,62.1,54.8,29.99,SSE,158,3.4,7.8,77,0.00,,,0.00,WUHU216HW,2013-08-16 13:31:00,
2013-08-16 09:36:00,62.8,55.4,29.99,South,180,6.3,7.8,77,0.00,,,0.00,WUHU216HW,2013-08-16 13:36:00,
2013-08-16 09:41:00,63.7,56.3,29.99,SSE,158,4.9,8.5,77,0.00,,,0.00,WUHU216HW,2013-08-16 13:41:00,
2013-08-16 09:46:00,64.4,56.0,29.99,SSW,203,4.9,8.5,74,0.00,,,0.00,WUHU216HW,2013-08-16 13:46:00,
2013-08-16 09:51:00,65.0,56.5,29.99,SE,135,5.6,7.4,74,0.00,,,0.00,WUHU216HW,2013-08-16 13:51:00,
2013-08-16 09:56:00,65.9,57.0,29.99,South,180,5.1,6.5,73,0.00,,,0.00,WUHU216HW,2013-08-16 13:56:00,
2013-08-16 10:01:00,66.2,56.5,29.99,South,180,7.8,9.2,71,0.00,,,0.00,WUHU216HW,2013-08-16 14:01:00,
2013-08-16 10:06:00,66.8,56.7,29.98,SSE,158,6.9,9.4,70,0.00,,,0.00,WUHU216HW,2013-08-16 14:06:00,
2013-08-16 10:11:00,67.1,56.6,29.98,SSW,203,6.9,9.4,69,0.00,,,0.00,WUHU216HW,2013-08-16 14:11:00,
2013-08-16 10:16:00,67.7,55.9,29.98,SSE,158,7.6,7.8,66,0.00,,,0.00,WUHU216HW,2013-08-16 14:16:00,
2013-08-16 10:21:00,68.2,55.1,29.99,South,180,4.9,8.7,63,0.00,,,0.00,WUHU216HW,2013-08-16 14:21:00,
2013-08-16 10:26:00,68.4,55.3,29.99,SSW,203,7.2,10.1,63,0.00,,,0.00,WUHU216HW,2013-08-16 14:26:00,
2013-08-16 10:31:00,68.8,56.1,29.98,SSW,203,6.7,11.0,64,0.00,,,0.00,WUHU216HW,2013-08-16 14:31:00,
2013-08-16 10:36:00,69.1,55.5,29.98,SSE,158,6.9,11.0,62,0.00,,,0.00,WUHU216HW,2013-08-16 14:36:00,
2013-08-16 10:41:00,69.1,54.7,29.98,SSE,158,6.3,9.8,60,0.00,,,0.00,WUHU216HW,2013-08-16 14:41:00,
2013-08-16 10:46:00,69.5,54.5,29.98,SSW,203,6.0,10.5,59,0.00,,,0.00,WUHU216HW,2013-08-16 14:46:00,
2013-08-16 10:51:00,69.8,55.4,29.98,SSE,158,2.7,10.5,60,0.00,,,0.00,WUHU216HW,2013-08-16 14:51:00,
2013-08-16 10:56:00,70.6,55.6,29.98,SSE,158,5.8,8.9,59,0.00,,,0.00,WUHU216HW,2013-08-16 14:56:00,
2013-08-16 11:01:00,70.7,54.7,29.98,SSW,203,4.9,9.2,57,0.00,,,0.00,WUHU216HW,2013-08-16 15:01:00,
2013-08-16 11:06:00,70.9,54.9,29.98,SE,135,7.6,9.2,57,0.00,,,0.00,WUHU216HW,2013-08-16 15:06:00,
2013-08-16 11:11:00,71.3,54.2,29.98,South,180,4.7,8.1,55,0.00,,,0.00,WUHU216HW,2013-08-16 15:11:00,
2013-08-16 11:16:00,72.0,55.4,29.97,SSW,203,5.1,9.6,56,0.00,,,0.00,WUHU216HW,2013-08-16 15:16:00,
2013-08-16 11:21:00,72.4,55.7,29.97,SE,135,5.4,9.6,56,0.00,,,0.00,WUHU216HW,2013-08-16 15:21:00,
2013-08-16 11:26:00,72.4,55.2,29.97,SSE,158,8.3,8.5,55,0.00,,,0.00,WUHU216HW,2013-08-16 15:26:00,
2013-08-16 11:31:00,72.4,55.7,29.97,SSE,158,8.7,9.2,56,0.00,,,0.00,WUHU216HW,2013-08-16 15:31:00,
2013-08-16 11:36:00,72.5,55.9,29.97,East,90,4.9,10.3,56,0.00,,,0.00,WUHU216HW,2013-08-16 15:36:00,
2013-08-16 11:41:00,73.1,56.3,29.97,SSE,158,7.8,10.3,56,0.00,,,0.00,WUHU216HW,2013-08-16 15:41:00,
2013-08-16 11:46:00,73.8,57.1,29.97,South,180,7.2,9.2,56,0.00,,,0.00,WUHU216HW,2013-08-16 15:46:00,
2013-08-16 11:51:00,74.7,57.4,29.97,SSE,158,6.3,9.2,55,0.00,,,0.00,WUHU216HW,2013-08-16 15:51:00,
2013-08-16 11:56:00,75.2,57.4,29.97,SSE,158,7.8,8.7,54,0.00,,,0.00,WUHU216HW,2013-08-16 15:56:00,
2013-08-16 12:01:00,75.6,57.8,29.97,South,180,6.3,9.2,54,0.00,,,0.00,WUHU216HW,2013-08-16 16:01:00,
2013-08-16 12:06:00,76.1,57.8,29.97,SE,135,8.3,9.2,53,0.00,,,0.00,WUHU216HW,2013-08-16 16:06:00,
2013-08-16 12:11:00,76.7,58.2,29.96,SE,135,7.6,9.2,53,0.00,,,0.00,WUHU216HW,2013-08-16 16:11:00,
2013-08-16 12:16:00,76.5,57.1,29.96,South,180,6.5,12.1,51,0.00,,,0.00,WUHU216HW,2013-08-16 16:16:00,
2013-08-16 12:21:00,76.7,57.8,29.96,SSE,158,6.5,12.1,52,0.00,,,0.00,WUHU216HW,2013-08-16 16:21:00,
2013-08-16 12:26:00,76.3,55.8,29.96,SW,225,6.3,9.8,49,0.00,,,0.00,WUHU216HW,2013-08-16 16:26:00,
2013-08-16 12:31:00,75.2,54.2,29.96,SSW,203,2.0,8.9,48,0.00,,,0.00,WUHU216HW,2013-08-16 16:31:00,
2013-08-16 13:20:00,75.4,55.6,30.09,South,180,5.4,5.4,50,0.00,,,0.00,WUHU216HW,2013-08-16 17:20:00,
2013-08-16 13:25:00,75.2,55.4,30.08,SW,225,1.8,5.4,50,0.00,,,0.00,WUHU216HW,2013-08-16 17:25:00,
2013-08-16 13:30:00,76.0,56.1,30.09,WNW,293,0.4,5.4,50,0.00,,,0.00,WUHU216HW,2013-08-16 17:30:00,
2013-08-16 13:35:00,76.3,55.8,30.08,SSE,158,3.4,4.9,49,0.00,,,0.00,WUHU216HW,2013-08-16 17:35:00,
2013-08-16 13:40:00,76.7,56.2,30.08,SSE,158,2.2,4.7,49,0.00,,,0.00,WUHU216HW,2013-08-16 17:40:00,
2013-08-16 13:45:00,76.9,56.3,30.08,SSE,158,4.0,4.7,49,0.00,,,0.00,WUHU216HW,2013-08-16 17:45:00,
2013-08-16 13:50:00,76.3,55.8,30.08,SE,135,4.0,6.9,49,0.00,,,0.00,WUHU216HW,2013-08-16 17:50:00,
2013-08-16 13:55:00,75.4,55.0,30.08,SSW,203,5.4,6.9,49,0.00,,,0.00,WUHU216HW,2013-08-16 17:55:00,
2013-08-16 14:00:00,74.9,55.1,30.08,SSE,158,4.7,6.9,50,0.00,,,0.00,WUHU216HW,2013-08-16 18:00:00,
2013-08-16 14:05:00,75.6,55.8,30.08,SSW,203,6.3,7.6,50,0.00,,,0.00,WUHU216HW,2013-08-16 18:05:00,
2013-08-16 14:10:00,76.9,55.1,30.08,SSE,158,8.9,8.9,47,0.00,,,0.00,WUHU216HW,2013-08-16 18:10:00,
2013-08-16 14:15:00,76.7,55.5,30.08,South,180,5.8,8.9,48,0.00,,,0.00,WUHU216HW,2013-08-16 18:15:00,
2013-08-16 14:20:00,76.7,56.2,30.08,South,180,5.4,8.9,49,0.00,,,0.00,WUHU216HW,2013-08-16 18:20:00,
2013-08-16 14:25:00,76.3,55.2,30.08,South,180,5.8,8.9,48,0.00,,,0.00,WUHU216HW,2013-08-16 18:25:00,
2013-08-16 14:30:00,76.0,54.9,30.08,SSW,203,9.2,9.2,48,0.00,,,0.00,WUHU216HW,2013-08-16 18:30:00,
2013-08-16 14:35:00,75.8,54.1,30.08,SSW,203,9.2,9.2,47,0.00,,,0.00,WUHU216HW,2013-08-16 18:35:00,
2013-08-16 14:40:00,76.7,54.9,30.08,SW,225,4.0,9.2,47,0.00,,,0.00,WUHU216HW,2013-08-16 18:40:00,
2013-08-16 14:45:00,77.4,54.9,30.08,SSW,203,5.8,9.8,46,0.00,,,0.00,WUHU216HW,2013-08-16 18:45:00,
2013-08-16 14:50:00,77.4,54.9,30.08,SSW,203,3.8,9.8,46,0.00,,,0.00,WUHU216HW,2013-08-16 18:50:00,
2013-08-16 14:55:00,77.8,54.6,30.12,SSW,203,4.7,9.4,45,0.00,,,0.00,WUHU216HW,2013-08-16 18:55:00,
2013-08-16 15:00:00,77.6,54.5,30.12,SSW,203,6.9,9.8,45,0.00,,,0.00,WUHU216HW,2013-08-16 19:00:00,
2013-08-16 15:05:00,76.7,54.3,30.12,SW,225,3.6,9.8,46,0.00,,,0.00,WUHU216HW,2013-08-16 19:05:00,
2013-08-16 15:10:00,76.7,54.3,30.12,SSE,158,3.6,7.6,46,0.00,,,0.00,WUHU216HW,2013-08-16 19:10:00,
2013-08-16 15:15:00,77.0,55.3,30.12,SSW,203,2.7,7.6,47,0.00,,,0.00,WUHU216HW,2013-08-16 19:15:00,
2013-08-16 15:20:00,78.1,55.0,30.12,WSW,248,3.4,7.2,45,0.00,,,0.00,WUHU216HW,2013-08-16 19:20:00,
2013-08-16 15:25:00,78.8,55.0,30.12,West,270,5.1,7.2,44,0.00,,,0.00,WUHU216HW,2013-08-16 19:25:00,
2013-08-16 15:30:00,78.8,54.4,30.12,WSW,248,6.3,8.1,43,0.00,,,0.00,WUHU216HW,2013-08-16 19:30:00,
2013-08-16 15:35:00,78.3,53.9,30.12,SSW,203,6.3,8.1,43,0.00,,,0.00,WUHU216HW,2013-08-16 19:35:00,
2013-08-16 15:40:00,78.7,55.4,30.12,SSW,203,5.6,7.6,45,0.00,,,0.00,WUHU216HW,2013-08-16 19:40:00,
2013-08-16 15:45:00,78.7,54.8,30.12,South,180,4.3,7.2,44,0.00,,,0.00,WUHU216HW,2013-08-16 19:45:00,
2013-08-16 15:50:00,78.1,55.0,30.12,SW,225,4.7,7.2,45,0.00,,,0.00,WUHU216HW,2013-08-16 19:50:00,
2013-08-16 15:55:00,78.1,55.0,30.12,South,180,1.3,6.0,45,0.00,,,0.00,WUHU216HW,2013-08-16 19:55:00,
2013-08-16 16:00:00,78.5,55.3,30.12,WSW,248,1.8,4.9,45,0.00,,,0.00,WUHU216HW,2013-08-16 20:00:00,
2013-08-16 16:05:00,79.0,55.2,30.12,SSW,203,6.3,7.8,44,0.00,,,0.00,WUHU216HW,2013-08-16 20:05:00,
2013-08-16 16:10:00,78.8,54.4,30.12,SW,225,2.2,9.2,43,0.00,,,0.00,WUHU216HW,2013-08-16 20:10:00,
2013-08-16 16:15:00,78.1,53.1,30.12,SSW,203,6.7,9.2,42,0.00,,,0.00,WUHU216HW,2013-08-16 20:15:00,
2013-08-16 16:20:00,76.9,53.8,30.12,WNW,293,1.6,6.7,45,0.00,,,0.00,WUHU216HW,2013-08-16 20:20:00,
2013-08-16 16:25:00,76.5,54.1,30.12,West,270,1.8,6.3,46,0.00,,,0.00,WUHU216HW,2013-08-16 20:25:00,
2013-08-16 16:30:00,76.0,54.3,30.12,WNW,293,1.1,3.1,47,0.00,,,0.00,WUHU216HW,2013-08-16 20:30:00,
2013-08-16 16:35:00,76.0,54.9,30.12,West,270,1.1,2.9,48,0.00,,,0.00,WUHU216HW,2013-08-16 20:35:00,
2013-08-16 16:40:00,76.1,55.6,30.12,West,270,1.3,2.9,49,0.00,,,0.00,WUHU216HW,2013-08-16 20:40:00,
2013-08-16 16:45:00,77.0,56.4,30.12,WSW,248,5.8,5.8,49,0.00,,,0.00,WUHU216HW,2013-08-16 20:45:00,
2013-08-16 16:50:00,77.4,56.2,30.12,SW,225,1.6,5.8,48,0.00,,,0.00,WUHU216HW,2013-08-16 20:50:00,
2013-08-16 16:55:00,77.9,56.6,30.12,WSW,248,0.9,5.8,48,0.00,,,0.00,WUHU216HW,2013-08-16 20:55:00,
2013-08-16 17:00:00,77.9,55.5,30.12,WNW,293,2.2,4.3,46,0.00,,,0.00,WUHU216HW,2013-08-16 21:00:00,
2013-08-16 17:05:00,77.0,54.6,30.13,West,270,3.1,4.7,46,0.00,,,0.00,WUHU216HW,2013-08-16 21:05:00,
2013-08-16 17:10:00,76.7,54.9,30.13,WSW,248,1.8,4.7,47,0.00,,,0.00,WUHU216HW,2013-08-16 21:10:00,
2013-08-16 17:15:00,76.3,54.5,30.13,West,270,2.0,3.4,47,0.00,,,0.00,WUHU216HW,2013-08-16 21:15:00,
2013-08-16 17:20:00,75.6,54.5,30.13,SW,225,1.6,4.0,48,0.00,,,0.00,WUHU216HW,2013-08-16 21:20:00,
2013-08-16 17:25:00,75.1,54.6,30.13,West,270,1.3,4.0,49,0.00,,,0.00,WUHU216HW,2013-08-16 21:25:00,
2013-08-16 17:30:00,74.7,54.9,30.13,SW,225,0.0,2.5,50,0.00,,,0.00,WUHU216HW,2013-08-16 21:30:00,
2013-08-16 17:35:00,74.7,55.5,30.13,NW,315,1.3,1.3,51,0.00,,,0.00,WUHU216HW,2013-08-16 21:35:00,
2013-08-16 17:40:00,74.0,55.7,30.13,NNW,338,1.1,1.8,53,0.00,,,0.00,WUHU216HW,2013-08-16 21:40:00,
2013-08-16 17:45:00,73.3,56.0,30.13,North,0,0.2,1.8,55,0.00,,,0.00,WUHU216HW,2013-08-16 21:45:00,
2013-08-16 17:50:00,73.6,56.9,30.13,NE,45,2.0,2.7,56,0.00,,,0.00,WUHU216HW,2013-08-16 21:50:00,
2013-08-16 17:55:00,74.5,57.2,30.13,North,0,1.1,3.4,55,0.00,,,0.00,WUHU216HW,2013-08-16 21:55:00,
2013-08-16 18:00:00,74.7,55.9,30.13,NW,315,2.5,3.8,52,0.00,,,0.00,WUHU216HW,2013-08-16 22:00:00,
2013-08-16 18:05:00,74.7,56.4,30.13,NNW,338,1.8,3.8,53,0.00,,,0.00,WUHU216HW,2013-08-16 22:05:00,
2013-08-16 18:10:00,74.7,55.9,30.14,WNW,293,2.2,4.7,52,0.00,,,0.00,WUHU216HW,2013-08-16 22:10:00,
2013-08-16 18:15:00,74.5,55.7,30.14,North,0,2.5,4.7,52,0.00,,,0.00,WUHU216HW,2013-08-16 22:15:00,
2013-08-16 18:20:00,74.2,55.9,30.14,ENE,68,0.2,4.3,53,0.00,,,0.00,WUHU216HW,2013-08-16 22:20:00,
2013-08-16 18:25:00,73.1,55.4,30.14,WNW,293,0.9,4.3,54,0.00,,,0.00,WUHU216HW,2013-08-16 22:25:00,
2013-08-16 18:30:00,72.7,55.5,30.15,ENE,68,0.2,3.8,55,0.00,,,0.00,WUHU216HW,2013-08-16 22:30:00,
2013-08-16 18:35:00,72.2,56.1,30.15,NE,45,2.7,3.8,57,0.00,,,0.00,WUHU216HW,2013-08-16 22:35:00,
2013-08-16 18:40:00,71.6,56.5,30.15,NE,45,1.8,3.8,59,0.00,,,0.00,WUHU216HW,2013-08-16 22:40:00,
2013-08-16 18:45:00,70.7,57.1,30.15,NE,45,1.1,2.9,62,0.00,,,0.00,WUHU216HW,2013-08-16 22:45:00,
2013-08-16 18:50:00,70.4,56.3,30.14,NE,45,0.0,2.9,61,0.00,,,0.00,WUHU216HW,2013-08-16 22:50:00,
2013-08-16 18:55:00,70.6,56.5,30.14,South,180,2.5,2.5,61,0.00,,,0.00,WUHU216HW,2013-08-16 22:55:00,
2013-08-16 19:00:00,70.6,56.5,30.14,ESE,113,2.5,2.7,61,0.00,,,0.00,WUHU216HW,2013-08-16 23:00:00,
2013-08-16 19:05:00,70.6,57.0,30.15,NNW,338,0.0,2.7,62,0.00,,,0.00,WUHU216HW,2013-08-16 23:05:00,
2013-08-16 19:10:00,70.2,56.6,30.15,NNW,338,0.0,2.7,62,0.00,,,0.00,WUHU216HW,2013-08-16 23:10:00,
2013-08-16 19:15:00,70.2,57.1,30.15,South,180,1.8,1.8,63,0.00,,,0.00,WUHU216HW,2013-08-16 23:15:00,
2013-08-16 19:20:00,69.7,57.3,30.15,NW,315,0.9,1.8,65,0.00,,,0.00,WUHU216HW,2013-08-16 23:20:00,
2013-08-16 19:25:00,68.8,57.3,30.15,ENE,68,1.1,1.8,67,0.00,,,0.00,WUHU216HW,2013-08-16 23:25:00,
2013-08-16 19:30:00,68.0,56.3,30.16,North,0,0.4,1.6,66,0.00,,,0.00,WUHU216HW,2013-08-16 23:30:00,
2013-08-16 19:35:00,67.3,56.0,30.16,North,0,0.0,1.6,67,0.00,,,0.00,WUHU216HW,2013-08-16 23:35:00,
2013-08-16 19:40:00,67.0,56.4,30.16,NNE,23,0.4,1.1,69,0.00,,,0.00,WUHU216HW,2013-08-16 23:40:00,
2013-08-16 19:45:00,66.6,56.1,30.16,SSE,158,0.0,1.1,69,0.00,,,0.00,WUHU216HW,2013-08-16 23:45:00,
2013-08-16 19:50:00,66.1,56.0,30.16,SSW,203,0.7,2.2,70,0.00,,,0.00,WUHU216HW,2013-08-16 23:50:00,
2013-08-16 19:55:00,65.3,55.4,30.17,SW,225,0.0,2.2,70,0.00,,,0.00,WUHU216HW,2013-08-16 23:55:00,
2013-08-16 20:00:00,64.8,55.3,30.17,NE,45,0.0,2.2,71,0.00,,,0.00,WUHU216HW,2013-08-17 00:00:00,
2013-08-16 20:05:00,64.3,55.1,30.17,NNW,338,0.2,1.3,72,0.00,,,0.00,WUHU216HW,2013-08-17 00:05:00,
2013-08-16 20:10:00,63.7,54.9,30.17,North,0,0.0,1.3,73,0.00,,,0.00,WUHU216HW,2013-08-17 00:10:00,
2013-08-16 20:15:00,63.4,54.9,30.17,NNE,23,1.1,1.1,74,0.00,,,0.00,WUHU216HW,2013-08-17 00:15:00,
2013-08-16 20:20:00,62.8,54.7,30.18,NNE,23,0.0,1.1,75,0.00,,,0.00,WUHU216HW,2013-08-17 00:20:00,
2013-08-16 20:25:00,62.5,54.0,30.18,WNW,293,0.0,1.1,74,0.00,,,0.00,WUHU216HW,2013-08-17 00:25:00,
2013-08-16 20:30:00,62.3,54.5,30.18,NE,45,1.1,2.7,76,0.00,,,0.00,WUHU216HW,2013-08-17 00:30:00,
2013-08-16 20:35:00,61.9,55.7,30.18,East,90,2.0,2.7,80,0.00,,,0.00,WUHU216HW,2013-08-17 00:35:00,
2013-08-16 20:40:00,61.4,54.8,30.19,West,270,0.0,2.5,79,0.00,,,0.00,WUHU216HW,2013-08-17 00:40:00,
2013-08-16 20:45:00,61.2,55.4,30.19,NE,45,0.2,2.0,81,0.00,,,0.00,WUHU216HW,2013-08-17 00:45:00,
2013-08-16 20:50:00,60.8,55.1,30.19,East,90,1.6,2.5,81,0.00,,,0.00,WUHU216HW,2013-08-17 00:50:00,
2013-08-16 20:55:00,60.8,54.7,30.19,ESE,113,0.4,2.5,80,0.00,,,0.00,WUHU216HW,2013-08-17 00:55:00,
2013-08-16 21:00:00,60.7,54.2,30.19,South,180,0.9,1.8,79,0.00,,,0.00,WUHU216HW,2013-08-17 01:00:00,
2013-08-16 21:05:00,60.7,54.9,30.19,NE,45,0.2,1.8,81,0.00,,,0.00,WUHU216HW,2013-08-17 01:05:00,
2013-08-16 21:10:00,60.3,54.6,30.20,NNW,338,0.0,1.8,81,0.00,,,0.00,WUHU216HW,2013-08-17 01:10:00,
2013-08-16 21:15:00,60.1,54.4,30.20,NNW,338,1.3,1.8,81,0.00,,,0.00,WUHU216HW,2013-08-17 01:15:00,
2013-08-16 21:20:00,59.9,54.5,30.20,North,0,1.1,2.0,82,0.00,,,0.00,WUHU216HW,2013-08-17 01:20:00,
2013-08-16 21:25:00,59.8,54.3,30.20,North,0,1.1,2.0,82,0.00,,,0.00,WUHU216HW,2013-08-17 01:25:00,
2013-08-16 21:30:00,59.8,54.0,30.20,North,0,0.0,1.8,81,0.00,,,0.00,WUHU216HW,2013-08-17 01:30:00,
2013-08-16 21:35:00,59.6,53.8,30.20,ESE,113,0.0,0.9,81,0.00,,,0.00,WUHU216HW,2013-08-17 01:35:00,
2013-08-16 21:40:00,59.4,53.9,30.20,NNE,23,0.0,0.7,82,0.00,,,0.00,WUHU216HW,2013-08-17 01:40:00,
2013-08-16 21:45:00,59.2,54.4,30.20,NE,45,0.7,1.3,84,0.00,,,0.00,WUHU216HW,2013-08-17 01:45:00,
2013-08-16 21:50:00,59.0,54.5,30.20,NE,45,0.7,1.3,85,0.00,,,0.00,WUHU216HW,2013-08-17 01:50:00,
2013-08-16 21:55:00,59.0,54.2,30.20,NNW,338,0.0,1.1,84,0.00,,,0.00,WUHU216HW,2013-08-17 01:55:00,
2013-08-16 22:00:00,59.0,54.2,30.20,NNW,338,0.0,0.9,84,0.00,,,0.00,WUHU216HW,2013-08-17 02:00:00,
2013-08-16 22:05:00,58.9,54.4,30.20,NNE,23,1.1,1.1,85,0.00,,,0.00,WUHU216HW,2013-08-17 02:05:00,
2013-08-16 22:10:00,58.7,54.6,30.20,NE,45,0.4,1.1,86,0.00,,,0.00,WUHU216HW,2013-08-17 02:10:00,
2013-08-16 22:15:00,58.7,54.2,30.21,NW,315,0.0,1.1,85,0.00,,,0.00,WUHU216HW,2013-08-17 02:15:00,
2013-08-16 22:20:00,58.9,54.4,30.21,NNW,338,0.0,0.4,85,0.00,,,0.00,WUHU216HW,2013-08-17 02:20:00,
2013-08-16 22:25:00,59.0,54.5,30.21,WNW,293,1.1,1.1,85,0.00,,,0.00,WUHU216HW,2013-08-17 02:25:00,
2013-08-16 22:30:00,59.2,54.4,30.22,West,270,1.8,1.8,84,0.00,,,0.00,WUHU216HW,2013-08-17 02:30:00,
2013-08-16 22:35:00,59.4,54.5,30.21,NE,45,1.1,1.8,84,0.00,,,0.00,WUHU216HW,2013-08-17 02:35:00,
2013-08-16 22:40:00,59.2,55.4,30.21,NE,45,1.8,2.5,87,0.00,,,0.00,WUHU216HW,2013-08-17 02:40:00,
2013-08-16 22:45:00,59.0,54.9,30.22,NNE,23,1.1,2.5,86,0.01,,,0.01,WUHU216HW,2013-08-17 02:45:00,
2013-08-16 22:50:00,58.9,55.0,30.22,NE,45,1.6,2.0,87,0.01,,,0.01,WUHU216HW,2013-08-17 02:50:00,
2013-08-16 22:55:00,58.7,55.2,30.21,ESE,113,1.1,2.5,88,0.01,,,0.01,WUHU216HW,2013-08-17 02:55:00,
2013-08-16 23:00:00,58.9,55.0,30.21,ESE,113,0.0,2.5,87,0.01,,,0.01,WUHU216HW,2013-08-17 03:00:00,
2013-08-16 23:05:00,59.0,55.5,30.21,NE,45,1.1,1.8,88,0.01,,,0.01,WUHU216HW,2013-08-17 03:05:00,
2013-08-16 23:10:00,59.0,55.5,30.21,East,90,0.4,1.8,88,0.01,,,0.01,WUHU216HW,2013-08-17 03:10:00,
2013-08-16 23:15:00,59.0,55.2,30.21,ESE,113,0.7,1.1,87,0.01,,,0.01,WUHU216HW,2013-08-17 03:15:00,
2013-08-16 23:20:00,59.2,55.4,30.21,NW,315,0.9,1.1,87,0.01,,,0.01,WUHU216HW,2013-08-17 03:20:00,
2013-08-16 23:25:00,59.2,55.4,30.21,West,270,1.1,1.1,87,0.01,,,0.01,WUHU216HW,2013-08-17 03:25:00,
2013-08-16 23:30:00,59.2,55.1,30.21,West,270,0.9,1.1,86,0.01,,,0.01,WUHU216HW,2013-08-17 03:30:00,
2013-08-16 23:35:00,59.0,54.9,30.22,WNW,293,1.1,1.3,86,0.01,,,0.01,WUHU216HW,2013-08-17 03:35:00,
2013-08-16 23:40:00,59.0,54.9,30.22,SSW,203,1.6,1.6,86,0.00,,,0.01,WUHU216HW,2013-08-17 03:40:00,
2013-08-16 23:45:00,59.0,54.9,30.22,WSW,248,0.4,1.8,86,0.00,,,0.01,WUHU216HW,2013-08-17 03:45:00,
2013-08-16 23:50:00,59.2,55.1,30.22,WNW,293,1.1,1.8,86,0.00,,,0.01,WUHU216HW,2013-08-17 03:50:00,
2013-08-16 23:55:00,59.2,55.1,30.22,West,270,1.1,1.8,86,0.00,,,0.01,WUHU216HW,2013-08-17 03:55:00,